Tracking 20370 objects as of 20-Feb-2020
HD Live streaming from Space Station
objects crossing your sky now
Track the group of recently launched Starlink satellites

COSMOS 825

Track COSMOS 825 now!
10-day predictions
COSMOS 825 is classified as:


NORAD ID: 8889
Int'l Code: 1976-054A
Perigee: 1,402.4 km
Apogee: 1,493.4 km
Inclination: 74.0 °
Period: 114.7 minutes
Semi major axis: 7818 km
RCS: 0.6977 m2 (medium)
Launch date: June 15, 1976
Source: Commonwealth of Independent States (former USSR) (CIS)
Launch site: PLESETSK MISSILE AND SPACE COMPLEX (PKMTR)
aabbcc
Your satellite tracking list
Your tracking list is empty




NASA's NSSDC Master Catalog

Two Line Element Set (TLE):
1  8889U 76054A   20050.71572684  .00000010  00000-0  15846-3 0  9990
2  8889  73.9974 250.0921 0058176  43.6234  84.5261 12.55699051  2485
Source of the keplerian elements: AFSPC